RH
90 92 91 88 83 83 80 82 83 85 83 87 86 87 88 87 85 83 87 95 96 93 87 85 88 100 83 86 85 33 42 76 70 69 65 64 46 44 51 46 41 61 66 68 68 69 70
90 90 90 86 89 86 83 82 82 88 85 84 89 89 85 85 88 86 87 94 96 96 84 83 91 94 77 97 42 61 58 76 74 83 59 49 47 37 45 56 52 64 67 66 64 69 66
85 84 86 84 86 89 82 82 86 88 87 86 87 89 90 87 88 89 93 95 98 95 88 82 96 85 77 83 52 54 75 75 85 66 60 44 34 32 45 63 58 61 72 65 63 68 72
84 78 87 83 87 87 88 87 89 85 86 84 89 88 89 91 88 91 93 92 88 86 82 81 97 88 90 60 50 62 73 75 75 67 49 37 32 37 46 54 59 65 65 77 66 63 61
80 87 84 83 86 84 88 90 87 82 83 85 89 87 87 88 89 92 87 92 94 86 85 89 99 79 89 52 54 59 61 71 60 56 50 37 33 43 42 56 63 59 75 83 75 61 61
89 82 79 78 84 82 88 85 83 87 86 86 87 91 89 85 90 92 91 92 96 88 92 91 92 91 75 50 49 69 62 62 46 45 54 54 53 55 55 57 69 68 68 83 82 70 70
79 82 85 82 84 79 82 85 86 78 78 87 89 88 87 85 92 93 99 91 86 86 91 85 82 78 54 50 62 65 56 42 43 46 59 57 76 68 52 50 49 52 71 82 77 67 75
74 72 75 77 75 78 78 79 81 84 82 88 91 92 83 84 90 94 98 93 94 85 90 74 78 80 75 61 66 63 49 52 51 58 58 63 86 64 50 46 44 60 76 89 75 68 72
76 79 78 78 80 81 80 82 83 86 87 86 92 91 78 81 88 90 94 90 91 79 94 69 77 80 64 50 70 68 47 49 54 64 64 68 62 53 48 50 51 61 64 90 72 75 73
76 79 80 80 81 82 85 86 84 85 92 93 96 89 82 84 76 89 83 81 82 78 75 57 69 66 50 51 65 52 42 43 50 55 56 52 48 55 56 53 49 59 56 64 79 71 79
82 80 81 81 82 84 86 86 88 88 94 96 99 90 83 82 83 93 85 92 79 71 75 63 72 44 46 58 56 57 40 40 58 58 53 56 61 63 59 52 46 54 58 65 70 75 75
82 81 82 82 85 84 86 88 88 90 96 98 98 92 80 88 85 79 79 78 63 70 79 67 56 56 55 46 48 51 46 39 45 52 48 48 46 52 52 49 42 54 61 65 67 68 84
78 81 80 86 84 84 86 88 89 91 96 90 77 90 83 88 86 73 82 71 85 92 47 68 65 56 55 58 58 60 62 55 61 67 69 54 55 45 45 63 58 57 64 89 91 93 80
81 81 81 81 82 84 86 87 89 91 93 72 77 89 87 86 79 78 88 72 91 52 61 68 66 58 64 56 58 61 79 89 56 54 71 74 79 60 51 56 68 68 50 72 79 89 73
79 82 81 81 82 84 84 86 88 91 78 66 85 70 53 71 56 86 78 83 75 65 69 80 66 67 66 57 58 66 93 95 69 58 60 74 62 51 51 48 47 64 60 45 66 74 83
80 80 82 81 82 84 84 85 87 88 64 59 73 76 72 82 72 81 84 81 71 60 68 71 92 72 77 70 84 97 96 77 77 60 61 78 89 62 52 47 47 55 44 57 67 88 89
80 79 79 81 82 84 84 86 86 85 37 54 78 79 67 91 84 86 93 74 68 61 63 76 92 97 98 72 90 100 99 66 54 69 61 82 96 78 78 77 69 63 58 57 46 62 62
75 79 78 81 81 83 84 86 87 83 33 45 65 63 50 67 87 93 77 69 52 52 50 62 84 87 98 99 98 98 99 64 52 50 83 80 99 96 79 52 64 82 60 48 60 79 86
77 86 77 80 80 83 83 85 86 82 77 72 56 57 46 58 91 88 79 64 52 52 57 63 77 84 83 98 99 98 97 57 53 56 93 91 99 96 93 88 87 97 95 91 89 87 78
84 74 77 79 78 80 81 84 85 82 48 51 51 37 54 73 70 69 69 70 70 49 53 47 52 51 94 95 98 98 98 96 93 67 74 88 100 96 70 71 77 92 94 95 95 97 86
76 78 80 79 78 80 79 82 83 80 32 38 72 62 65 42 75 48 44 66 68 66 52 42 49 59 73 97 98 98 90 88 92 89 95 96 97 92 64 61 64 77 77 93 98 96 97
78 84 79 76 79 79 78 80 81 83 33 66 72 78 85 67 60 45 49 66 68 60 51 58 54 54 57 95 88 97 95 96 95 96 97 98 97 83 81 56 61 77 78 83 93 93 94
80 81 80 75 77 76 78 80 81 86 56 80 97 93 88 61 56 49 52 54 53 56 48 53 59 58 53 53 68 85 96 96 95 96 97 97 96 96 95 88 92 95 92 86 92 91 86
75 76 78 80 77 78 76 78 76 82 75 71 89 85 82 39 59 52 66 70 64 65 65 61 58 56 55 82 66 68 79 90 94 96 98 96 96 95 95 95 95 95 86 90 85 91 90
86 85 76 80 77 84 74 76 75 76 91 73 78 90 93 80 75 69 81 86 83 70 74 76 63 58 61 60 56 63 62 66 88 87 96 97 95 95 95 94 93 93 92 94 91 94 93
82 83 78 75 78 78 77 80 78 77 86 71 76 71 80 89 82 84 93 93 97 86 83 69 60 62 58 72 64 80 81 66 88 92 91 95 96 95 95 95 94 95 92 89 89 92 93
82 76 78 78 75 79 77 77 82 82 78 96 74 72 86 82 91 87 91 93 81 94 97 85 80 66 60 78 91 97 84 70 94 89 94 93 94 95 94 94 84 88 91 86 79 79 89
83 77 77 78 77 76 78 76 88 84 73 97 84 76 78 81 83 80 74 92 89 95 97 85 85 75 79 92 93 94 96 94 91 90 95 93 94 94 95 87 61 95 84 80 93 94 85
85 82 78 78 76 76 75 77 89 80 80 96 92 98 82 79 80 79 69 67 73 91 92 88 94 95 93 94 89 93 94 96 91 96 70 93 96 92 99 99 94 94 95 95 94 81 83
Wind_Speed
20 20 20 20 20 21 21 20 20 20 18 19 18 17 17 16 16 15 14 13 12 7 6 6 8 17 10 2 8 4 7 18 23 23 22 7 6 5 7 6 5 5 5 11 13 19 15
20 20 20 20 21 21 22 20 21 20 19 19 19 18 17 17 16 15 15 14 12 8 5 6 9 18 6 3 4 11 3 25 22 26 16 11 8 5 5 5 4 6 16 13 9 11 7
19 20 21 21 21 21 22 22 22 21 20 19 19 18 18 18 17 16 15 13 11 11 6 8 13 10 3 11 3 14 13 25 24 18 7 9 13 4 6 7 8 9 12 10 5 5 8
20 20 21 22 22 22 22 22 22 22 21 20 19 19 18 18 16 15 14 9 7 5 7 10 13 4 5 6 7 4 12 12 18 12 12 8 9 7 5 11 5 5 4 5 2 3 2
19 20 21 21 22 23 23 23 23 23 22 22 20 19 18 17 15 13 6 3 2 3 8 10 9 3 6 4 4 9 13 16 17 10 10 7 6 5 4 6 4 1 5 5 4 5 5
20 21 21 22 22 23 24 24 25 24 24 23 22 19 17 15 13 7 4 2 6 9 10 7 6 1 5 3 5 13 8 22 6 7 5 3 4 4 3 4 10 8 6 4 6 2 10
20 20 22 23 24 24 25 25 26 26 26 24 22 19 15 13 9 5 5 9 3 2 6 5 6 3 3 3 7 5 12 9 5 5 5 2 4 10 15 4 5 7 7 8 3 3 6
20 21 22 23 24 25 25 26 27 27 27 26 22 19 14 10 6 3 0 1 4 2 5 11 5 5 8 7 2 2 19 6 6 6 6 4 16 6 9 8 7 6 9 4 4 2 5
20 21 23 24 25 26 27 27 28 28 27 26 21 17 10 9 2 3 5 2 1 9 2 3 7 4 5 8 4 9 8 5 5 6 8 9 3 11 7 6 8 4 9 8 6 6 6
21 22 23 24 26 26 27 28 29 30 28 24 19 14 12 4 3 2 4 7 11 8 3 3 3 5 5 4 3 6 11 6 3 13 5 3 2 14 8 8 6 6 5 12 18 10 5
21 23 24 25 27 28 29 29 30 30 29 24 17 10 5 2 2 3 1 6 6 1 2 2 2 0 2 6 4 3 6 4 8 7 7 8 8 8 11 12 7 4 12 10 9 4 5
21 23 25 26 28 30 30 31 31 31 30 25 14 5 4 3 1 4 4 5 1 3 5 1 2 3 5 2 1 3 2 3 4 5 1 4 2 8 9 4 11 17 10 8 4 3 2
22 24 25 27 28 29 31 32 33 32 30 22 8 4 5 3 1 4 3 3 3 2 5 1 1 3 3 4 3 3 8 5 5 4 4 2 3 3 5 7 13 6 7 3 2 4 5
21 24 25 27 29 30 32 34 33 33 31 14 6 3 2 2 6 7 2 3 2 1 2 3 3 2 4 3 3 4 13 10 6 2 3 7 4 9 5 8 11 9 12 6 8 6 6
21 23 26 27 29 31 32 34 34 33 29 10 4 2 2 4 3 3 5 2 4 1 1 4 3 4 3 3 4 3 5 8 11 12 5 6 6 1 3 4 13 7 10 8 5 3 3
21 23 25 27 29 31 33 35 36 35 28 8 3 2 3 4 3 4 2 4 3 1 1 2 1 4 6 6 4 6 7 6 9 13 6 2 2 0 3 3 2 8 9 5 3 7 6
20 22 25 28 30 32 34 35 36 37 25 5 2 3 3 2 2 3 3 4 4 1 0 2 3 3 1 5 7 6 5 4 2 11 16 8 5 1 3 4 6 3 6 4 4 6 6
20 22 24 27 29 32 34 35 36 37 24 6 2 2 2 1 3 1 3 3 2 2 1 3 2 5 5 4 2 5 8 2 7 3 11 12 4 4 2 2 2 1 2 17 9 7 0
17 20 23 25 28 30 33 35 36 37 22 5 2 1 3 2 1 2 5 4 2 2 4 2 4 5 3 4 4 5 4 3 5 4 6 5 4 4 1 2 2 4 4 2 4 2 9
17 20 22 24 26 29 32 34 36 36 18 3 2 3 4 3 1 1 4 4 4 1 4 3 3 0 2 5 6 4 3 2 2 1 5 4 5 5 11 3 4 7 7 7 7 6 6
17 19 21 22 25 27 30 33 34 38 17 3 4 1 2 2 2 3 2 3 3 3 3 2 2 5 4 2 3 5 2 1 3 4 4 3 4 5 3 2 2 2 6 12 15 12 8
15 18 19 22 24 26 28 29 31 36 18 9 2 3 4 1 2 3 2 0 3 5 1 2 4 5 3 5 5 3 2 3 4 2 4 2 1 2 1 3 3 3 1 7 2 3 4
14 17 18 20 22 24 25 27 26 28 25 7 3 3 2 1 1 1 2 1 1 2 1 1 2 4 5 5 4 2 2 1 4 4 6 5 5 3 1 5 5 4 8 7 3 2 5
14 16 17 18 20 21 22 22 22 22 22 8 4 0 2 2 0 1 2 2 4 3 4 4 2 3 3 2 4 4 4 4 2 2 1 4 4 2 3 3 5 1 2 2 5 4 2
15 16 16 17 18 20 20 20 20 19 16 13 5 2 2 3 1 1 3 3 7 5 4 4 4 3 2 3 2 2 2 2 1 2 1 2 3 3 4 3 2 2 3 5 5 4 2
13 14 15 16 16 19 19 19 19 17 16 11 4 4 1 1 2 1 2 2 3 3 6 4 3 3 4 2 2 4 4 2 2 1 3 2 2 2 3 4 7 1 1 2 1 2 9
13 15 15 16 16 18 18 19 18 16 14 10 1 3 1 2 2 2 2 2 3 3 3 5 5 2 1 2 3 3 3 1 4 5 4 3 1 2 3 1 0 0 1 2 4 1 11
13 15 15 16 17 17 18 19 17 15 13 9 1 1 1 2 2 4 3 3 1 1 2 4 3 1 1 3 3 2 2 2 3 1 1 3 4 2 2 0 4 5 1 3 2 3 11
13 16 17 17 17 18 19 19 17 14 12 6 2 2 2 3 1 3 4 4 3 3 1 3 4 3 1 2 1 2 1 2 2 2 3 1 1 3 1 1 2 3 2 2 1 7 4
Wind_Direction
4 4 4 0 358 355 356 354 353 351 347 343 343 339 335 334 330 325 320 319 314 301 264 241 206 170 135 138 255 326 323 179 176 177 170 146 136 132 150 144 103 91 113 62 90 78 73
7 5 3 1 360 357 355 352 350 350 347 345 343 340 334 332 330 325 319 318 312 301 272 224 206 157 121 232 278 324 256 167 172 171 166 150 168 171 103 71 72 96 100 111 76 94 115
6 4 1 0 359 357 353 352 350 348 347 344 343 340 336 331 330 325 319 315 304 288 240 211 189 149 158 241 234 352 159 169 173 174 140 174 163 124 124 95 147 135 99 109 85 111 127
6 5 2 0 358 355 355 352 349 348 346 343 341 337 334 331 326 323 320 320 322 272 206 192 183 143 250 257 307 183 169 147 171 173 160 142 166 102 84 114 91 90 90 112 66 181 125
7 7 4 2 358 358 354 351 350 347 346 342 339 335 332 329 326 323 320 333 21 150 173 159 148 122 257 292 216 182 168 143 143 141 160 129 119 100 126 109 80 148 140 114 135 25 134
9 8 3 2 359 358 354 351 349 347 344 340 337 333 330 329 326 318 327 158 111 131 130 118 100 52 272 239 166 154 150 142 127 114 76 83 67 107 89 139 184 181 145 87 133 59 61
10 7 4 2 359 359 353 351 348 347 343 340 337 335 336 332 324 313 64 114 121 62 239 208 182 213 348 337 123 129 145 102 91 90 154 176 134 193 187 167 115 115 108 113 95 85 87
9 5 3 3 359 358 354 352 348 345 342 342 340 338 340 334 319 288 226 281 94 301 280 227 229 244 262 267 106 156 154 124 139 163 122 97 216 168 133 151 120 99 116 93 83 114 96
9 6 5 2 359 358 355 351 347 345 345 343 342 344 345 337 320 216 187 167 86 5 242 265 201 197 221 159 213 191 147 123 132 138 187 184 267 140 135 141 132 159 156 173 153 133 62
7 5 5 2 360 356 356 352 349 348 346 344 342 348 336 2 96 157 219 269 275 316 33 232 196 251 174 156 226 169 176 139 156 188 133 268 156 161 154 182 148 170 173 144 141 154 192
5 6 3 1 359 356 355 353 352 351 348 346 338 352 7 80 86 149 309 314 275 270 331 130 194 15 177 154 146 205 184 87 161 171 148 214 156 154 175 194 152 181 131 136 152 94 130
7 5 2 1 359 357 355 353 353 353 352 349 347 24 107 121 352 358 333 129 190 28 257 130 125 154 141 133 100 104 151 65 142 123 100 167 148 158 193 133 163 135 94 77 92 124 253
9 5 2 1 1 358 355 355 355 355 353 355 15 63 87 80 51 335 330 107 75 207 351 44 189 156 196 166 120 172 184 205 158 133 181 137 185 193 132 85 141 127 141 118 180 195 228
10 5 3 2 1 360 358 357 357 355 352 359 16 63 64 14 321 329 23 51 168 260 329 334 317 128 187 154 174 161 178 223 236 119 146 166 211 173 188 163 177 192 176 166 202 198 197
11 8 5 3 1 2 0 359 357 356 352 353 347 352 44 353 6 50 67 73 223 301 345 335 298 141 230 229 142 132 208 216 210 198 208 177 228 156 156 150 152 202 210 183 109 46 118
13 11 7 4 3 2 1 1 359 355 353 349 342 3 10 358 84 82 94 256 246 332 305 261 26 343 206 185 148 186 187 219 217 209 142 275 213 270 139 137 215 174 167 177 195 179 225
13 11 8 5 3 3 2 2 360 356 355 3 349 52 5 72 101 94 193 235 287 254 130 269 197 234 302 332 193 189 208 274 252 184 191 169 202 319 97 205 176 156 185 216 200 202 221
11 11 8 6 4 2 2 2 1 359 359 23 60 34 345 338 62 31 236 199 343 269 198 234 215 243 227 206 249 250 218 234 345 148 188 188 168 177 170 127 62 346 226 204 214 210 231
7 12 8 6 4 4 2 2 3 2 7 352 80 256 359 357 158 307 315 292 249 285 238 209 248 213 170 202 270 207 200 354 9 359 174 178 204 144 25 310 33 235 183 106 105 74 208
10 11 9 7 6 5 4 3 4 1 4 22 75 21 333 35 104 249 301 268 285 332 280 266 256 278 212 238 218 255 245 188 325 58 16 246 193 218 232 167 134 175 188 200 186 214 201
5 9 8 7 7 6 6 6 6 3 9 59 27 126 146 323 19 338 314 297 271 293 202 268 244 220 175 266 261 233 229 299 191 217 181 178 264 184 147 125 91 152 172 184 206 210 208
7 10 6 7 8 7 8 9 11 7 14 71 74 38 12 274 271 275 294 309 330 335 325 318 267 332 246 223 220 257 162 194 245 124 164 192 234 89 95 113 128 157 263 157 93 112 96
4 10 8 8 8 7 7 9 12 14 26 63 48 71 116 281 327 141 230 290 262 12 260 147 292 303 278 256 294 284 273 141 182 176 192 181 156 139 236 125 122 267 205 195 120 95 136
0 6 7 8 8 5 6 8 11 17 21 50 43 118 59 279 224 242 337 310 272 270 256 300 278 226 313 106 120 66 66 72 89 150 233 172 128 77 123 176 219 22 13 354 104 74 69
360 5 4 8 6 2 2 4 6 10 12 23 32 73 61 285 285 263 353 303 301 282 264 244 248 224 338 297 267 296 278 321 49 47 226 174 133 129 169 206 338 346 206 162 177 171 168
354 357 360 3 2 1 358 358 1 4 8 4 15 50 98 294 248 87 331 310 300 311 319 259 301 268 177 250 233 201 223 229 238 91 15 86 76 137 167 188 208 214 56 7 260 261 156
354 354 356 357 355 356 355 353 351 353 351 345 295 5 173 250 183 147 218 293 300 281 257 292 324 293 109 223 229 190 249 324 193 176 162 113 70 150 182 187 302 86 113 271 131 230 134
352 354 352 351 353 348 350 349 347 347 341 343 284 57 132 254 185 184 215 204 280 246 268 323 313 285 247 230 203 215 164 222 76 338 204 144 148 162 100 181 241 7 203 212 114 67 114
354 348 350 350 348 346 346 346 342 342 339 342 236 233 165 153 199 188 217 194 179 202 282 277 300 278 304 250 76 76 59 35 145 213 358 188 117 144 346 55 351 356 22 16 323 112 98